Showing default

COSMOS 2082, 20624

Orbit data source: Space-Track

COSMOS 2082, 20624 is a payload satellite owned by GRU (CIS) in LEO that was launched on Tue, 22 May 1990 UTC via a ZENIT-2 launch vehicle from the Tyuratam Missile And Space Complex (TTMTR). Payload-class satellites include a variety of spacecraft equipped with specific instruments for various scientific and technological missions. These include communications satellites like Starlink; space stations such as the ISS; scientific satellites like the Hubble; Earth observation satellites from companies like Planet Labs, Umbra, and HawkEye 360; GPS; miniature CubeSats for education and research; and military/defense satellites.

Loading next visibility...
Identifier
20624, 1990-046A
Orbit
LEO
Country
Flag of CISCIS
Related business
Manufacturer
Yuzhnoe
Mission
Defense Sigint
Bus & Motor
TSELINA-2, Unknown motor
Mass
3,250 kg wet, 3,250 kg dry
Launch date (UTC)
1990-05-22 (36 years ago)
Launch vehicle
ZENIT-2
Launch site
Tyuratam Missile And Space Complex (TTMTR)
Object type
Payload
Rocket body
Debris
Shape & HBR
Unknown shape, 9.5 m
Radar Cross Section
Large (>1 m²)

Expand to show TLE details & history
Last TLE update: 17 hours ago

TLE from 17 hours ago
0 COSMOS 2082
1 20624U 90046A   25348.89869710  .00000215  00000-0  13598-3 0  9990
2 20624  71.0394 198.3480 0015998 326.5369  33.4742 14.14815660835633
Epoch: 2025-12-14T21:34Z
TLE epoch observation values (Epoch: 2025-12-14T21:34:07.429Z)
Latitude
0.00003°
Longitude
151.01205°
Altitude
835.71 km
Speed
7.44 km/s
True Right ascension
13h 13m 23s
True Declination
0° 00' 00"
Sunlit
Object was in daylight at epoch
Visualization orbit readout
Latitude
Unknown
Longitude
Unknown
Altitude
Unknown
Speed
Unknown
Apparent Right ascension
Unknown
Apparent Declination
Unknown
Sunlit
N/A
Visualization observer readout
Local Sidereal Time
13:24:48
Azimuth
Unknown
Elevation
Unknown
Doppler factor
Unknown
Orbital elements
Apogee altitude
852.409 km
Perigee altitude
829.312 km
Semi-major axis
7,218.998 km
Eccentricity
0.0016
Inclination
71.0394°
RAAN
198.348°
Arg. of periapsis
326.5369°
True anomaly
33.57548°
Mean anomaly
33.4742°
Eccentric anomaly
33.52482°
Mean motion
3.53857 °/min
Orbital period
101.74 mins
BSTAR
0.00013598
Loading maneuver chart data...
Computing Atmospheric mass density...
Loading historical data...
Loading historical data...
Loading historical data...
Loading historical data...
Loading historical data...
Loading historical data...
Loading historical data...
Other satellites on launch #46 in the year 1990 (1990-05-22 UTC)

Documentation

Showing up to 5 results
|